Lid_Strength_Index
-0 -0 0 3 11 12 15 13 9 11 10 7 6 7 9 8 10 13 2 1 0 0 -0 -1 -2 -1 -1 -1 -1 -1 -1 -1 -1 -1 -1 -1 -2 -1 -1 -1 -1 -1 -1 -2 -2 -2 -2 -2 -2
0 1 2 7 14 17 15 11 12 10 8 6 6 7 8 10 5 4 3 1 -0 -0 -0 -0 -2 -1 -1 -1 -1 -1 -1 -1 -1 -1 -1 -1 -1 -1 -1 -1 -1 -2 -2 -2 -2 -2 -2 -2 -2
0 1 7 10 13 16 15 11 10 8 6 7 8 6 7 8 4 4 1 0 0 -0 -0 -0 -1 -1 -1 -1 -1 -1 -1 -1 -1 -1 -1 -1 -2 -1 -1 -1 -1 -2 -2 -2 -2 -2 -2 -2 -2
2 4 6 13 15 12 11 9 8 8 7 6 6 9 5 3 4 2 0 0 0 0 -0 -1 -1 -1 -1 -1 -1 -1 -1 -1 -1 -1 -1 -1 -1 -1 -1 -1 -1 -1 -2 -2 -2 -2 -2 -2 -2
2 6 12 14 13 10 9 8 7 9 8 7 6 9 8 3 1 1 1 0 1 0 -0 -0 -2 -1 -1 -1 -1 -1 -1 -1 -1 -1 -1 -2 -2 -1 -1 -1 -1 -1 -1 -2 -1 -2 -2 -2 -1
7 7 14 15 13 10 8 7 8 8 7 7 8 8 7 2 2 1 1 1 -0 0 -0 -0 -1 -1 -1 -1 -1 -1 -1 -1 -1 -2 -1 -1 -2 -2 -1 -2 -1 -1 -2 -2 -1 -2 -2 -2 -1
9 11 14 13 12 11 9 6 8 8 8 8 6 9 6 4 2 1 1 0 0 -0 -0 -0 -0 -1 -1 -1 -1 -1 -1 -2 -2 -1 -1 -1 -2 -1 -2 -2 -2 -1 -2 -2 -2 -1 -1 -1 -1
7 9 13 12 13 12 8 7 6 7 8 4 4 9 9 4 2 1 1 1 0 0 0 -0 0 -0 -0 -0 -1 -1 -2 -2 -1 -1 -1 -1 -1 -1 -1 -2 -2 -1 -2 -1 -1 -1 -1 -1 -1
5 12 13 12 11 10 7 8 6 5 7 5 5 5 4 2 2 2 2 2 1 1 1 0 1 1 0 -0 -1 -1 -1 -1 -1 -1 -1 -1 -0 -0 -0 -1 -1 -2 -1 -1 -2 -2 -1 -2 -2
8 12 11 8 8 9 7 7 7 7 8 7 6 4 3 3 3 3 3 3 3 2 1 1 1 1 0 -0 0 0 -0 -0 -0 -0 -0 -0 -0 -1 -1 -1 -1 -1 -1 -1 -1 -1 -1 -1 -1
8 11 8 8 7 6 7 7 6 8 9 7 8 6 4 4 4 4 3 3 3 2 1 1 0 0 0 0 0 0 0 -0 -0 -0 -0 -1 -0 -0 -1 -1 -0 -0 -1 -1 -0 -0 0 -0 -1
10 7 7 7 6 7 8 6 8 7 7 5 5 4 4 5 4 4 4 3 2 2 1 1 0 1 1 1 0 -0 -0 -0 -0 -1 -0 -0 0 0 -0 -0 -0 -1 -0 -0 -1 -0 -0 -0 -1
9 8 7 6 6 6 6 8 8 8 5 4 4 4 5 4 4 3 2 2 2 2 1 1 0 1 1 0 0 0 0 -0 -1 -1 -1 -1 -0 -0 -1 -0 -0 0 0 -1 -1 -0 0 -1 -1
7 7 7 6 7 6 8 8 7 7 5 5 5 5 5 4 4 3 3 3 2 2 2 1 0 0 0 0 -0 0 0 0 -0 -0 -0 -1 -1 -0 -0 -0 -0 0 1 -1 -1 -1 -0 -0 -1
7 9 8 7 7 8 7 10 10 6 5 6 6 5 5 4 3 4 3 3 2 2 2 1 1 1 1 1 0 0 0 0 -0 -0 -0 -1 -1 0 0 -0 0 -0 1 -0 -1 -1 -1 0 0
9 9 12 8 8 7 8 14 9 6 6 7 6 5 5 4 4 3 2 2 2 1 1 1 0 0 1 1 0 1 0 0 0 -0 -0 -0 -0 0 0 -0 -0 -0 -0 -1 -1 -0 1 1 1
10 13 12 11 7 8 9 13 8 6 7 7 7 6 6 5 5 3 2 2 2 1 1 1 1 1 0 1 1 0 0 0 -0 -1 0 0 -0 -0 1 0 -0 0 -1 -0 -0 0 0 1 1
12 13 12 12 9 9 11 11 9 7 7 7 7 7 7 6 6 4 3 3 3 2 1 1 1 1 1 1 1 1 2 0 -0 -0 -0 0 0 -0 0 0 -0 -0 -0 0 -0 0 0 0 1
10 11 11 10 8 10 11 11 10 8 8 8 7 7 7 7 6 4 3 3 3 3 3 3 2 1 1 2 2 2 2 1 0 -0 -0 -0 -0 -0 -0 0 0 0 0 0 0 0 1 1 0
10 11 12 10 8 10 12 12 10 8 8 7 7 7 6 6 6 5 4 4 3 2 2 3 2 2 1 1 2 2 2 0 0 -0 -0 -0 0 -0 0 0 1 0 1 1 0 1 1 1 0
11 12 12 12 10 10 11 13 12 9 8 7 6 6 5 5 6 5 5 4 3 2 2 2 2 1 1 1 1 0 0 0 1 0 0 -0 0 0 0 0 1 1 1 1 0 1 1 2 1
13 9 10 11 13 16 11 18 13 11 10 9 8 7 6 5 4 5 4 4 3 2 1 1 1 1 1 1 1 1 2 3 1 1 0 -0 -0 0 -0 0 1 1 1 1 0 0 1 1 2
11 8 10 11 13 14 14 16 14 11 12 10 8 7 6 5 5 4 4 4 3 2 2 1 1 1 1 1 1 1 2 1 1 1 1 0 0 0 0 -0 0 0 1 1 0 0 0 0 1
9 9 12 14 13 18 15 16 16 14 12 10 8 7 6 5 5 4 4 4 4 3 2 2 2 1 1 1 1 1 2 2 2 1 1 1 0 1 0 1 0 0 -0 0 0 0 0 0 1
11 15 17 16 18 19 15 16 14 10 9 8 8 7 6 5 5 4 5 5 4 4 3 2 2 2 2 1 1 1 1 1 1 1 1 1 1 2 1 2 1 -0 -0 -0 -0 0 0 0 1
13 14 16 18 17 16 14 17 13 8 7 7 6 6 6 5 5 4 5 5 5 4 4 3 3 3 3 3 2 1 1 1 1 1 1 1 2 2 2 1 1 1 0 -0 -0 0 0 1 1
13 14 13 14 15 17 15 13 10 9 8 8 8 7 6 6 5 5 5 5 5 4 4 3 3 3 3 3 2 2 1 1 1 1 0 1 0 2 2 2 1 1 1 1 1 0 1 0 0
11 12 14 14 19 19 16 16 15 12 10 9 9 8 7 6 5 4 4 5 5 4 4 3 3 3 2 3 2 2 1 1 0 1 1 1 0 1 1 1 1 1 1 1 1 1 0 1 0
12 13 16 14 15 17 18 15 11 10 9 9 8 7 7 6 5 5 4 3 3 3 3 3 3 3 3 2 2 1 1 1 1 1 1 0 0 0 0 0 0 1 1 1 2 1 0 1 1
12 13 15 16 15 16 15 14 9 8 8 8 8 7 6 5 5 4 4 4 5 4 3 2 2 3 3 2 2 1 1 1 1 1 1 0 1 0 0 0 1 1 1 1 2 2 1 1 1